Weather History for Kenai, AK

Change the Weather History Date:

Thursday, November 1, 2012

  Actual Average Record
Temperature  
Mean Temperature 27 °F -  
Max Temperature 30 °F 34 °F 48 °F (1951)
Min Temperature 24 °F 21 °F -6 °F (1956)
Degree Days  
Heating Degree Days 38    
Moisture  
Dew Point 11 °F    
Average Humidity 50    
Maximum Humidity 58    
Minimum Humidity 43    
Precipitation  
Precipitation 0.00 in - - ()
Sea Level Pressure  
Sea Level Pressure 29.75 in    
Wind  
Wind Speed 20 mph (NNE)    
Max Wind Speed 29 mph    
Max Gust Speed 37 mph    
Visibility 10 miles    
Events      
Averages and records for this station are not official NWS values.
T = Trace of Precipitation, MM = Missing Value Source: NWS Daily Summary

Daily Weather History Graph

Daily Weather History Graph

Search for Another Location

Airport:

Trip Planner

Search our weather history database for the weather conditions in past years. The results will help you decide how hot, cold, wet, or windy it might be!

Date:

Astronomy

Nov. 01, 2012 Rise Set
Actual Time 9:31 AM AKDT 6:04 PM AKDT
Civil Twilight 8:45 AM AKDT 6:50 PM AKDT
Nautical Twilight 7:54 AM AKDT 7:41 PM AKDT
Astronomical Twilight 7:05 AM AKDT 8:30 PM AKDT
Moon 7:29 PM AKDT (11/1) 12:53 PM AKDT (11/1)
Length of Visible Light 10h 05m
Length of Day
8h 32m
Waning Gibbous, 92% of the Moon is Illuminated
Nov 1
Waning Gibbous
Nov 6
Last Quarter
Nov 13
New
Nov 20
First Quarter
Nov 28
Full

Hourly Weather History & Observations

Time (AKDT) Temp. Windchill Dew Point Humidity Pressure Visibility Wind Dir Wind Speed Gust Speed Precip Events Conditions
12:53 AM 26.1 °F 12.0 °F 10.0 °F 51% 29.66 in 10.0 mi NNE 20.7 mph - N/A   Clear
1:53 AM 25.0 °F 10.2 °F 9.0 °F 51% 29.68 in 10.0 mi NNE 21.9 mph 29.9 mph N/A   Clear
2:53 AM 25.0 °F 10.6 °F 9.0 °F 51% 29.70 in 10.0 mi NNE 20.7 mph 26.5 mph N/A   Clear
3:53 AM 25.0 °F 10.9 °F 10.0 °F 53% 29.71 in 10.0 mi NNE 19.6 mph - N/A   Clear
4:53 AM 24.8 °F 11.9 °F 10.4 °F 54% 29.72 in 10.0 mi NNE 16.1 mph - N/A   Clear
5:53 AM 25.0 °F 12.2 °F 10.9 °F 55% 29.74 in 10.0 mi NNE 16.1 mph 23.0 mph N/A   Mostly Cloudy
6:53 AM 26.1 °F 12.7 °F 10.0 °F 51% 29.75 in 10.0 mi NNE 18.4 mph 29.9 mph N/A   Partly Cloudy
7:53 AM 25.0 °F 10.6 °F 8.1 °F 49% 29.76 in 10.0 mi NE 20.7 mph 26.5 mph N/A   Clear
8:53 AM 25.0 °F 11.7 °F 10.0 °F 53% 29.78 in 10.0 mi NNE 17.3 mph - N/A   Clear
9:53 AM 25.0 °F 12.2 °F 12.0 °F 58% 29.80 in 10.0 mi NNE 16.1 mph - N/A   Clear
10:53 AM 27.0 °F 12.5 °F 12.0 °F 53% 29.81 in 10.0 mi NNE 23.0 mph 27.6 mph N/A   Clear
11:53 AM 28.0 °F 12.5 °F 12.0 °F 51% 29.82 in 10.0 mi NNE 28.8 mph 32.2 mph N/A   Clear
12:53 PM 28.0 °F 13.6 °F 12.0 °F 51% 29.82 in 10.0 mi NNE 24.2 mph 34.5 mph N/A   Clear
1:53 PM 28.9 °F 14.8 °F 10.9 °F 47% 29.83 in 10.0 mi NNE 24.2 mph 36.8 mph N/A   Clear
2:53 PM 28.9 °F 14.0 °F 9.0 °F 43% 29.80 in 10.0 mi NE 27.6 mph 36.8 mph N/A   Clear
3:53 PM 30.0 °F 16.6 °F 10.0 °F 43% 29.80 in 10.0 mi NNE 23.0 mph 32.2 mph N/A   Clear
4:53 PM 28.9 °F 15.1 °F 10.9 °F 47% 29.79 in 10.0 mi NNE 23.0 mph 32.2 mph N/A   Clear
5:53 PM 28.0 °F 14.9 °F 12.0 °F 51% 29.78 in 10.0 mi NNE 19.6 mph 27.6 mph N/A   Clear
6:53 PM 28.0 °F 16.1 °F 12.0 °F 51% 29.76 in 10.0 mi NNE 16.1 mph 23.0 mph N/A   Clear
7:53 PM 28.0 °F 17.5 °F 12.0 °F 51% 29.75 in 10.0 mi NE 12.7 mph - N/A   Clear
8:53 PM 28.9 °F 16.5 °F 12.0 °F 49% 29.73 in 10.0 mi North 18.4 mph 26.5 mph N/A   Clear
9:53 PM 28.9 °F 15.8 °F 12.0 °F 49% 29.71 in 10.0 mi NNE 20.7 mph 28.8 mph N/A   Clear
10:53 PM 28.9 °F 16.9 °F 10.9 °F 47% 29.68 in 10.0 mi NNE 17.3 mph - N/A   Clear
11:53 PM 28.9 °F 16.5 °F 10.0 °F 45% 29.65 in 10.0 mi NNE 18.4 mph - N/A   Clear